TianYi 2 (43155 NORAD) Tracking and Keplerian Element Data

This shows tracking and keplerian element data for the satellite.

Feedback or suggestion? Click here.




ElementValue
Catalog43155
NameTianYi 2
Epoch Orbit4540
Epoch Day319.97997101
Epoch Year2018
RAAN31.7885
Inclination97.5114
Eccentricity0.0017362
Argument of Perigee349.0197
Mean Anonmoly115.9417
Mean Motion15.10797215
Decay Rate3.78E-06
L11 43155U 18008A 18319.97997101 .00000378 00000-0 26579-4 0 9991
L22 43155 97.5114 31.7885 0017362 349.0197 115.9417 15.10797215 45400

Live tracking and technical data element details for TianYi 2 (NORAD 43155). TianYi 2 can be tracked NOW for your location showing map with azimuth and elevation plus other details from your city location.

Track the satellite on the map from your city or location and see movement details for azimuth, elevation, latitude, longitude, range, height, and movement on the map or in text.







IsCatalogInMostPopularTable: catalog: 43155, numindb: 119
Update: records affected: 1



GetName: 43155 TianYi 2

Hit Count: updated at: Fri, 16 Nov 2018 11:25:18 GMT